Latest Coastal Weather Observations for Coolangatta (QLD)

IDN60701

Issued at 9:25 pm EST Friday 25 July 2014 (issued every 10 minutes, with the page automatically refreshed every 10 minutes)

About coastal observations | Map of coastal stations | Coastal observations for NSW | Marine services | Other Formats
Station Details ID: 040717 Name: COOLANGATTA Lat: -28.17 Lon: 153.51 Height: 4.0 m
Data from the previous 72 hours. | See also: Recent months at Coolangatta (QLD)
Date/Time
EST
Temp

°C
Wind Pressure Rain
since 9am
mm
Weather Cloud Vis
km
Sea
Height
m
Swell
Dir
 
Speed
knots
Gust
knots
hPa Trend Height
m
Period
s
Dir
25/09:00pm 15.8 W 3 4 1027.2 - 0.0 - Mostly clear 10 - - - -
25/08:30pm 16.6 W 5 6 1027.0 - 0.0 - Partly cloudy 10 - - - -
25/08:00pm 17.5 WNW 5 7 1026.7 - 0.0 - Partly cloudy 10 - - - -
25/07:30pm 19.3 N 10 13 1026.3 - 0.0 - Partly cloudy 10 - - - -
25/07:00pm 18.9 N 10 13 1026.1 - 0.0 - - 10 - - - -
25/06:30pm 19.0 N 11 15 1025.7 - 0.0 - - 10 - - - -
25/06:00pm 19.4 N 12 16 1025.4 - 0.0 - - 10 - - - -
25/05:30pm 19.4 N 12 17 1025.1 - 0.0 - - 10 - - - -
25/05:00pm 19.8 N 13 16 1024.6 - 0.0 - - 10 - - - -
25/04:30pm 20.3 N 14 17 1024.4 - 0.0 - - 10 - - - -
25/04:00pm 20.7 N 13 16 1024.1 - 0.0 - - 10 - - - -
25/03:30pm 21.2 N 14 18 1024.1 - 0.0 - - 10 - - - -
25/03:00pm 21.3 N 15 19 1023.9 - 0.0 - - 10 - - - -
25/02:30pm 21.6 N 14 18 1023.9 - 0.0 - - 10 - - - -
25/02:00pm 21.3 N 13 17 1024.0 - 0.0 - - 10 - - - -
25/01:30pm 21.8 N 13 16 1024.2 - 0.0 - - 10 - - - -
25/01:00pm 21.7 N 13 16 1024.5 - 0.0 - - 10 - - - -
25/12:30pm 21.8 N 13 16 1024.8 - 0.0 - - 10 - - - -
25/12:00pm 21.8 N 13 16 1025.3 - 0.0 - - 10 - - - -
25/11:30am 21.0 N 13 15 1025.7 - 0.0 - - 10 - - - -
25/11:00am 21.1 N 12 15 1026.2 - 0.0 - - 10 - - - -
25/10:30am 21.3 N 11 15 1026.5 - 0.0 - - 10 - - - -
25/10:00am 21.2 N 11 14 1026.9 - 0.0 - - 10 - - - -
25/09:30am 21.0 NW 7 11 1027.0 - 0.0 - - 10 - - - -
25/09:00am 19.9 WNW 6 8 1026.9 - 0.2 - - 10 - - - -
25/08:30am 17.5 WSW 1 5 1026.8 - 0.2 - - 10 - - - -
25/08:00am 14.3 CALM 0 0 1026.5 - 0.2 - - 10 - - - -
25/07:30am 12.0 CALM 0 0 1026.3 - 0.2 - - 10 - - - -
25/07:00am 10.7 SW 3 5 1026.0 - 0.2 - - 10 - - - -
25/06:52am 10.2 SSW 3 5 1025.9 - 0.2 - - 10 - - - -
25/06:30am 8.8 SSW 1 4 1025.6 - 0.2 - - 0.8 - - - -
25/06:00am 9.1 CALM 0 0 1025.2 - 0.2 - - 0.4 - - - -
25/05:30am 10.0 CALM 0 0 1024.9 - 0.2 - - 0.7 - - - -
25/05:02am 9.9 CALM 0 0 1024.7 - 0.2 - - 5 - - - -
25/05:00am 10.4 CALM 0 0 1024.7 - 0.2 - - 10 - - - -
25/04:50am 10.3 CALM 0 0 1024.7 - 0.2 - - 10 - - - -
25/04:30am 9.6 CALM 0 0 1024.6 - 0.2 - - 3 - - - -
25/04:28am 9.7 CALM 0 0 1024.6 - 0.2 - - 6 - - - -
25/04:19am 9.2 CALM 0 0 1024.7 - 0.2 - - 10 - - - -
25/04:00am 9.7 CALM 0 0 1024.7 - 0.2 - - 0.3 - - - -
25/03:30am 10.6 SSW 2 3 1024.7 - 0.2 - - 4 - - - -
25/03:29am 10.6 SSW 2 3 1024.7 - 0.2 - - 5 - - - -
25/03:00am 10.8 SSW 3 4 1024.7 - 0.2 - - 10 - - - -
25/02:55am 10.8 SSW 2 4 1024.7 - 0.2 - - 10 - - - -
25/02:30am 10.2 CALM 0 0 1024.8 - 0.2 - - 2 - - - -
25/02:25am 10.2 CALM 0 0 1024.7 - 0.2 - - 5 - - - -
25/02:00am 10.7 S 2 4 1024.6 - 0.2 - - 10 - - - -
25/01:30am 11.4 SW 4 6 1024.6 - 0.2 - - 10 - - - -
25/01:00am 11.5 SW 2 4 1024.7 - 0.2 - Partly cloudy 10 - - - -
25/12:57am 11.4 SW 2 4 1024.6 - 0.2 - Partly cloudy 10 - - - -
25/12:39am 10.6 CALM 0 3 1024.6 - 0.2 - - 6 - - - -
25/12:30am 11.0 SSW 2 3 1024.6 - 0.2 - - 10 - - - -
25/12:00am 11.9 SW 3 4 1024.7 - 0.2 - - 10 - - - -
 
Date/Time
EST
Temp

°C
Wind Pressure Rain
since 9am
mm
Weather Cloud Vis
km
Sea
Height
m
Swell
Dir
 
Speed
knots
Gust
knots
hPa Trend Height
m
Period
s
Dir
24/11:30pm 11.9 WSW 1 4 1024.9 - 0.2 - - 10 - - - -
24/11:00pm 11.4 SW 1 4 1024.9 - 0.2 - - 10 - - - -
24/10:30pm 11.8 SW 3 5 1025.0 - 0.2 - - 10 - - - -
24/10:00pm 12.2 WSW 4 5 1025.1 - 0.2 - Partly cloudy 10 - - - -
24/09:30pm 12.7 WSW 3 4 1025.0 - 0.2 - Partly cloudy 10 - - - -
24/09:00pm 12.5 WSW 2 5 1024.8 - 0.2 - - 10 - - - -
24/08:30pm 13.0 WSW 4 6 1024.6 - 0.2 - - 10 - - - -
24/08:00pm 13.4 WSW 3 4 1024.3 - 0.2 - - 10 - - - -
24/07:30pm 13.9 WSW 3 5 1024.1 - 0.2 - - 10 - - - -
24/07:00pm 14.5 SW 4 6 1023.8 - 0.2 - Partly cloudy 10 - - - -
24/06:30pm 15.3 WSW 5 7 1023.4 - 0.2 - - 10 - - - -
24/06:00pm 17.9 NE 5 7 1022.9 - 0.2 - Mostly clear 10 - - - -
24/05:30pm 18.4 NE 6 8 1022.6 - 0.2 - Partly cloudy 10 - - - -
24/05:00pm 18.6 NE 6 9 1022.5 - 0.2 - Partly cloudy 10 - - - -
24/04:30pm 19.4 NE 7 9 1022.3 - 0.2 - - 10 - - - -
24/04:00pm 20.0 NE 7 10 1022.2 - 0.2 - - 10 - - - -
24/03:30pm 20.2 ENE 7 9 1022.1 - 0.2 - - 10 - - - -
24/03:00pm 20.0 ENE 9 11 1021.9 - 0.2 - - 10 - - - -
24/02:30pm 20.2 E 9 12 1021.9 - 0.2 - - 10 - - - -
24/02:00pm 20.0 ENE 10 13 1022.0 - 0.2 - - 10 - - - -
24/01:30pm 20.8 E 9 14 1022.2 - 0.2 - - 10 - - - -
24/01:00pm 20.5 ENE 8 11 1022.3 - 0.2 - - 10 - - - -
24/12:30pm 20.7 ENE 3 28 1022.5 - 0.2 - - 10 - - - -
24/12:00pm 20.7 ENE 7 10 1023.0 - 0.0 - - 10 - - - -
24/11:30am 21.0 NE 6 10 1023.4 - 0.0 - - - - - - -
24/11:00am 20.8 ENE 5 8 1023.7 - 0.0 - - - - - - -
24/10:30am 20.1 SE 5 10 1023.9 - 0.0 - - 10 - - - -
24/10:00am 20.7 S 6 8 1024.1 - 0.0 - Partly cloudy 10 - - - -
24/09:30am 18.6 SSE 7 9 1023.7 - 0.0 - - 10 - - - -
24/09:00am 17.8 S 5 7 1023.5 - 0.0 - Mostly clear 10 - - - -
24/08:30am 16.0 S 5 6 1023.4 - 0.0 - - 10 - - - -
24/08:00am 14.0 SSE 3 5 1023.3 - 0.0 - - 10 - - - -
24/07:30am 13.1 SSE 3 4 1023.3 - 0.0 - - 10 - - - -
24/07:00am 12.3 SSE 4 4 1023.1 - 0.0 - - 10 - - - -
24/06:30am 12.0 S 4 5 1022.6 - 0.0 - - 10 - - - -
24/06:00am 11.9 SSE 4 5 1022.3 - 0.0 - - 10 - - - -
24/05:30am 12.3 S 4 4 1022.0 - 0.0 - - 10 - - - -
24/05:00am 11.9 S 3 4 1021.8 - 0.0 - Partly cloudy 10 - - - -
24/04:30am 12.0 CALM 0 0 1021.8 - 0.0 - - 10 - - - -
24/04:00am 12.2 CALM 0 3 1021.6 - 0.0 - - 10 - - - -
24/03:30am 11.8 S 4 4 1021.7 - 0.0 - - 10 - - - -
24/03:00am 12.0 S 3 4 1021.8 - 0.0 - - 10 - - - -
24/02:30am 11.7 SW 5 6 1021.5 - 0.0 - - 10 - - - -
24/02:00am 11.7 SSE 4 5 1021.5 - 0.0 - - 10 - - - -
24/01:30am 12.1 SSW 3 3 1022.1 - 0.0 - - 10 - - - -
24/01:00am 12.5 SW 6 7 1022.5 - 0.0 - - 10 - - - -
24/12:30am 11.8 SW 3 5 1022.2 - 0.0 - - 10 - - - -
24/12:00am 11.6 SSW 4 5 1022.2 - 0.0 - - 10 - - - -
 
Date/Time
EST
Temp

°C
Wind Pressure Rain
since 9am
mm
Weather Cloud Vis
km
Sea
Height
m
Swell
Dir
 
Speed
knots
Gust
knots
hPa Trend Height
m
Period
s
Dir
23/11:30pm 11.1 SW 3 4 1022.5 - 0.0 - - 10 - - - -
23/11:00pm 11.2 SW 4 5 1022.7 - 0.0 - - 10 - - - -
23/10:30pm 11.9 SSW 4 5 1022.7 - 0.0 - - 10 - - - -
23/10:00pm 12.3 SW 4 5 1022.8 - 0.0 - - 10 - - - -
23/09:30pm 12.7 WSW 4 6 1022.7 - 0.0 - Partly cloudy 10 - - - -
23/09:00pm 13.1 SSW 5 6 1022.5 - 0.0 - Partly cloudy 10 - - - -
23/08:30pm 12.5 WSW 5 6 1022.7 - 0.0 - - 10 - - - -
23/08:00pm 13.4 SW 5 6 1022.5 - 0.0 - - 10 - - - -
23/07:30pm 14.1 SSW 6 7 1022.4 - 0.0 - - 10 - - - -
23/07:00pm 14.3 SSW 5 6 1022.4 - 0.0 - - 10 - - - -
23/06:30pm 14.9 SSW 6 8 1022.5 - 0.0 - - 10 - - - -
23/06:00pm 14.7 S 7 9 1021.9 - 0.0 - - 10 - - - -
23/05:30pm 15.3 S 5 7 1022.0 - 0.0 - - 10 - - - -
23/05:00pm 16.5 SSE 9 12 1021.3 - 0.0 - - 10 - - - -
23/04:30pm 17.5 SSE 11 16 1021.2 - 0.0 - Partly cloudy 10 - - - -
23/04:00pm 18.4 SE 13 18 1021.2 - 0.0 - - 10 - - - -
23/03:30pm 17.7 SSE 11 14 1021.3 - 0.0 - Partly cloudy 10 - - - -
23/03:00pm 19.1 SSE 10 15 1020.8 - 0.0 - Mostly cloudy 10 - - - -
23/02:30pm 19.5 SE 13 16 1020.7 - 0.0 - Partly cloudy 10 - - - -
23/02:00pm 19.8 S 9 14 1020.6 - 0.0 - Partly cloudy 10 - - - -
23/01:30pm 19.9 SSE 11 17 1020.6 - 0.0 - Partly cloudy 10 - - - -
23/01:00pm 19.3 SSE 11 15 1020.8 - 0.0 - Partly cloudy 10 - - - -
23/12:30pm 19.9 S 7 11 1021.3 - 0.0 - Partly cloudy 10 - - - -
23/12:00pm 20.2 S 9 15 1021.8 - 0.0 - - 10 - - - -
23/11:30am 19.4 SSW 10 14 1022.4 - 0.0 - Partly cloudy 10 - - - -
23/11:00am 18.7 SSW 9 13 1022.8 - 0.0 - - 10 - - - -
23/10:30am 18.6 S 10 14 1023.3 - 0.0 - - 10 - - - -
23/10:00am 17.6 SSW 9 15 1023.6 - 0.0 - - 10 - - - -
23/09:30am 17.1 SSW 10 16 1023.8 - 0.0 - - 10 - - - -
23/09:00am 16.4 SSW 11 16 1023.5 - 1.4 - - 10 - - - -
23/08:30am 15.9 SSW 9 14 1023.2 - 1.4 - - 10 - - - -
23/08:00am 14.8 SSW 7 10 1023.0 - 1.4 - - 10 - - - -
23/07:30am 13.8 SW 8 12 1022.6 - 1.4 - - 10 - - - -
23/07:00am 12.8 S 9 13 1022.3 - 1.4 - - 10 - - - -
23/06:30am 13.0 SSW 11 15 1021.8 - 1.4 - - 10 - - - -
23/06:00am 12.8 SSW 9 14 1021.4 - 1.4 - - 10 - - - -
23/05:30am 12.8 S 9 13 1021.3 - 1.4 - - 10 - - - -
23/05:00am 12.6 SSW 8 13 1021.1 - 1.4 - - 10 - - - -
23/04:30am 12.6 SSW 9 14 1020.9 - 1.4 - - 10 - - - -
23/04:00am 12.6 SW 7 10 1020.7 - 1.4 - - 10 - - - -
23/03:30am 12.9 SSW 9 13 1020.6 - 1.4 - - 10 - - - -
23/03:00am 12.5 SSW 6 9 1020.8 - 1.4 - - 10 - - - -
23/02:30am 12.7 SSW 7 9 1021.1 - 1.4 - - 10 - - - -
23/02:00am 12.6 SSW 8 11 1021.5 - 1.4 - - 10 - - - -
23/01:30am 12.0 S 8 10 1021.4 - 1.4 - - 10 - - - -
23/01:19am 11.4 S 8 10 1021.3 - 1.4 - - 10 - - - -
23/01:02am 10.0 SSW 3 6 1021.3 - 1.4 - - 6 - - - -
23/01:00am 10.1 SSW 2 3 1021.4 - 1.4 - - 10 - - - -
23/12:47am 10.4 SW 3 3 1021.6 - 1.4 - - 10 - - - -
23/12:30am 10.2 CALM 0 3 1021.6 - 1.4 - - 1 - - - -
23/12:07am 9.9 SE 3 4 1021.8 - 1.4 - - 4 - - - -
23/12:00am 10.3 SE 3 4 1021.9 - 1.4 - Mostly clear 8 - - - -
 
Date/Time
EST
Temp

°C
Wind Pressure Rain
since 9am
mm
Weather Cloud Vis
km
Sea
Height
m
Swell
Dir
 
Speed
knots
Gust
knots
hPa Trend Height
m
Period
s
Dir
22/11:30pm 11.0 S 1 5 1021.9 - 1.4 - - 10 - - - -
22/11:00pm 11.1 SW 4 5 1021.7 - 1.4 - Partly cloudy 10 - - - -
22/10:30pm 12.2 S 3 4 1022.1 - 1.4 - - 10 - - - -
22/10:00pm 12.6 W 5 6 1022.3 - 1.4 - Partly cloudy 10 - - - -
22/09:30pm 12.7 S 5 6 1022.4 - 1.4 - Partly cloudy 10 - - - -

Other Formats:

Comma delimited format used in spreadsheet applications
http://www.bom.gov.au/fwo/IDN60701/IDN60701.94592.axf

JavaScript Object Notation format (JSON) in row-major order
http://www.bom.gov.au/fwo/IDN60701/IDN60701.94592.json